Grand Marais, MN

10:05 PM CDT on July 21, 2017 (GMT -0500)
Grand Marais

Weather History for KGNA - January, 2013

Change the Weather History Date:

Monday, January 28, 2013

  Actual Average (KCKC) Record (KCKC)
Temperature  
Mean Temperature 35 °F -  
Max Temperature 36 °F 17 °F 33 °F (2008)
Min Temperature 34 °F 2 °F -23 °F (2014)
Degree Days  
Heating Degree Days 30    
Moisture  
Dew Point 30 °F    
Average Humidity 82    
Maximum Humidity 92    
Minimum Humidity 72    
Precipitation  
Precipitation 0.03 in - - ()
Sea Level Pressure  
Sea Level Pressure 29.88 in    
Wind  
Wind Speed 5 mph (SE)    
Max Wind Speed 12 mph    
Max Gust Speed -    
Averages and records for this station are not official NWS values.
T = Trace of Precipitation, MM = Missing Value Source: NWS Daily Summary

Daily Weather History Graph

Daily Weather History Graph

Search for Another Location

Airport or City:

Trip Planner

Search our weather history database for the weather conditions in past years. The results will help you decide how hot, cold, wet, or windy it might be!

Date:

Astronomy

Jan. 28, 2013 Rise Set
Actual Time 7:32 AM CST 4:56 PM CST
Civil Twilight 6:59 AM CST 5:29 PM CST
Nautical Twilight 6:22 AM CST 6:07 PM CST
Astronomical Twilight 5:45 AM CST 6:43 PM CST
Moon 7:03 PM CST (1/28) 7:48 AM CST (1/28)
Length of Visible Light 10h 30m
Length of Day
9h 23m
Full, 98% of the Moon is Illuminated
Jan 28
Full
Feb 3
Last Quarter
Feb 10
New
Feb 17
First Quarter
Feb 25
Full

Hourly Weather History & Observations

Time (CST) Temp. Windchill Dew Point Humidity Pressure Visibility Wind Dir Wind Speed Gust Speed Precip Events Conditions
12:56 AM 35.1 °F 29.3 °F 30.9 °F 85% 29.90 in - East 6.9 mph - N/A   Unknown
1:56 AM 35.1 °F 27.9 °F 32.0 °F 89% 29.88 in - SSE 9.2 mph - 0.01 in   Unknown
2:56 AM 34.0 °F 29.8 °F 32.0 °F 92% 29.88 in - Variable 4.6 mph - N/A   Unknown
3:56 AM 34.0 °F 31.0 °F 32.0 °F 92% 29.88 in - SE 3.5 mph - 0.01 in   Unknown
4:56 AM 34.0 °F 31.0 °F 30.9 °F 89% 29.87 in - ESE 3.5 mph - 0.01 in   Unknown
5:56 AM 34.0 °F 31.0 °F 30.9 °F 89% 29.87 in - NE 3.5 mph - N/A   Unknown
6:56 AM 34.0 °F 28.8 °F 30.9 °F 89% 29.87 in - East 5.8 mph - N/A   Unknown
7:56 AM 35.1 °F 31.0 °F 30.0 °F 82% 29.88 in - East 4.6 mph - N/A   Unknown
8:56 AM 34.0 °F - 30.9 °F 89% 29.91 in - Calm Calm - N/A   Unknown
9:56 AM 34.0 °F 31.0 °F 30.0 °F 85% 29.90 in - NE 3.5 mph - N/A   Unknown
10:56 AM 36.0 °F - 30.9 °F 82% 29.91 in - Calm Calm - N/A   Unknown
11:56 AM 36.0 °F 33.3 °F 30.9 °F 82% 29.93 in - SW 3.5 mph - N/A   Unknown
12:56 PM 36.0 °F - 30.0 °F 79% 29.91 in - Calm Calm - N/A   Unknown
1:56 PM 36.0 °F - 30.0 °F 79% 29.88 in - Calm Calm - N/A   Unknown
2:56 PM 36.0 °F 33.3 °F 28.9 °F 76% 29.89 in - SSW 3.5 mph - N/A   Unknown
3:56 PM 36.0 °F 28.0 °F 28.9 °F 76% 29.92 in - SSW 11.5 mph - N/A   Unknown
4:56 PM 35.1 °F 30.1 °F 27.0 °F 72% 29.91 in - South 5.8 mph - N/A   Unknown
5:56 PM 35.1 °F 32.2 °F 28.0 °F 76% 29.90 in - SSE 3.5 mph - N/A   Unknown
6:56 PM 35.1 °F 29.3 °F 28.0 °F 76% 29.89 in - South 6.9 mph - N/A   Unknown
7:56 PM 35.1 °F 27.9 °F 28.0 °F 76% 29.89 in - South 9.2 mph - N/A   Unknown
8:56 PM 34.0 °F 29.8 °F 28.0 °F 79% 29.86 in - South 4.6 mph - N/A   Unknown
9:56 PM 35.1 °F 32.2 °F 28.9 °F 78% 29.86 in - South 3.5 mph - N/A   Unknown
10:56 PM 35.1 °F 32.2 °F 28.9 °F 78% 29.83 in - East 3.5 mph - N/A   Unknown
11:56 PM 35.1 °F 30.1 °F 28.9 °F 78% 29.79 in - East 5.8 mph - N/A   Unknown